Le nostre stazioni meteo in Italia

Pubblicità
Il mio iltempo24.it
Threave, Gran Bretagna (99090): Temperatura & dewpoint: 15.08.2019 13:00:00 - 21.08.2019 13:00:00 (BST)Threave, Gran Bretagna (99090): Temperatura -20cm & Temperatura -100cm: 15.08.2019 13:00:00 - 21.08.2019 13:00:00 (BST)Threave, Gran Bretagna (99090): precipitazioni: 15.08.2019 13:00:00 - 21.08.2019 13:00:00 (BST)
Data & Tempo tt [°C] td [°C] tt -20cm [°C] tt -100cm [°C] rr [mm]
21.08.2019 13:00:00 16,4 13,0 - - 0,0
21.08.2019 12:00:00 16,2 13,0 - - 0,0
21.08.2019 11:00:00 16,5 12,0 - - 0,0
21.08.2019 10:00:00 15,3 12,5 16,7 15,0 0,0
21.08.2019 09:00:00 13,8 12,9 - - 0,2
21.08.2019 08:00:00 13,7 13,3 - - 0,0
21.08.2019 07:00:00 12,2 12,0 - - 0,0
21.08.2019 06:00:00 12,6 12,4 - - 0,0
21.08.2019 05:00:00 12,9 12,7 - - 0,0
21.08.2019 04:00:00 11,6 11,3 - - 0,2
21.08.2019 03:00:00 11,5 11,3 - - 0,0
21.08.2019 02:00:00 10,9 10,6 - - 0,0
21.08.2019 01:00:00 9,8 9,1 - - 0,0
21.08.2019 00:00:00 11,7 11,2 - - 0,0
20.08.2019 23:00:00 11,5 10,9 - - 0,0
20.08.2019 22:00:00 12,0 11,1 - - 0,0
20.08.2019 21:00:00 13,9 11,4 - - 0,0
20.08.2019 20:00:00 14,8 10,7 - - 0,0
20.08.2019 19:00:00 15,6 9,8 - - 0,0
20.08.2019 18:00:00 15,2 11,1 - - 0,0
20.08.2019 17:00:00 16,7 10,0 - - 0,0
20.08.2019 16:00:00 17,1 11,5 - - 0,0
20.08.2019 15:00:00 17,3 9,7 - - 0,0
20.08.2019 14:00:00 17,5 10,9 - - 0,0
20.08.2019 13:00:00 15,3 9,7 - - 0,0
20.08.2019 12:00:00 16,4 12,0 - - 0,0
20.08.2019 11:00:00 13,9 11,2 - - 0,0
20.08.2019 10:00:00 13,0 11,2 16,7 15,0 0,0
20.08.2019 09:00:00 11,7 10,9 - - 0,2
20.08.2019 08:00:00 11,3 10,5 - - 0,2
20.08.2019 07:00:00 11,2 10,6 - - 0,8
20.08.2019 06:00:00 11,2 10,5 - - 1,8
20.08.2019 05:00:00 11,2 10,2 - - 0,4
20.08.2019 04:00:00 11,4 10,3 - - 0,8
20.08.2019 03:00:00 11,5 10,6 - - 1,0
20.08.2019 02:00:00 11,7 10,7 - - 1,0
20.08.2019 01:00:00 11,8 10,7 - - 0,4
20.08.2019 00:00:00 12,0 10,7 - - 0,0
19.08.2019 23:00:00 11,9 10,5 - - 0,0
19.08.2019 22:00:00 11,7 10,6 - - 0,0
19.08.2019 21:00:00 11,9 10,1 - - 0,0
19.08.2019 20:00:00 13,3 10,3 - - 0,0
19.08.2019 19:00:00 14,1 11,6 - - 0,0
19.08.2019 18:00:00 13,1 10,7 - - 0,8
19.08.2019 17:00:00 16,3 9,4 - - 0,0
19.08.2019 16:00:00 16,1 11,4 - - 0,0
19.08.2019 15:00:00 15,9 9,9 - - 0,0
19.08.2019 14:00:00 16,6 10,7 - - 0,0
19.08.2019 13:00:00 15,6 10,5 - - 0,0
19.08.2019 12:00:00 16,2 10,9 - - 0,0
19.08.2019 11:00:00 15,4 11,5 - - 0,0
19.08.2019 10:00:00 14,7 10,6 16,5 15,0 0,0
19.08.2019 09:00:00 14,0 10,4 - - 0,0
19.08.2019 08:00:00 12,9 10,7 - - 0,0
19.08.2019 07:00:00 12,3 10,3 - - 0,0
19.08.2019 06:00:00 12,3 10,2 - - 0,0
19.08.2019 05:00:00 12,5 10,3 - - 0,0
19.08.2019 04:00:00 12,8 10,7 - - 0,0
19.08.2019 03:00:00 12,8 10,8 - - 0,0
19.08.2019 02:00:00 13,2 11,0 - - 0,0
19.08.2019 01:00:00 12,8 10,9 - - 0,0
19.08.2019 00:00:00 13,1 11,3 - - 0,0
18.08.2019 23:00:00 13,0 11,4 - - 0,0
18.08.2019 22:00:00 13,1 11,2 - - 0,0
18.08.2019 21:00:00 13,8 12,0 - - 0,0
18.08.2019 20:00:00 14,7 12,4 - - 0,0
18.08.2019 19:00:00 16,0 11,8 - - 0,0
18.08.2019 18:00:00 16,1 12,0 - - 0,0
18.08.2019 17:00:00 16,9 12,2 - - 0,0
18.08.2019 16:00:00 15,7 12,4 - - 0,0
18.08.2019 15:00:00 14,5 12,8 - - 0,8
18.08.2019 14:00:00 17,2 12,3 - - 0,0
18.08.2019 13:00:00 15,8 11,5 - - 0,0
18.08.2019 12:00:00 15,6 12,0 - - 0,0
18.08.2019 11:00:00 14,4 11,8 - - 0,0
18.08.2019 10:00:00 13,3 12,2 16,7 15,2 1,6
18.08.2019 09:00:00 12,8 11,8 - - 1,4
18.08.2019 08:00:00 12,8 11,3 - - 0,4
18.08.2019 07:00:00 13,2 10,8 - - 0,0
18.08.2019 06:00:00 13,3 10,2 - - 0,0
18.08.2019 05:00:00 13,1 10,4 - - 0,0
18.08.2019 04:00:00 13,4 10,2 - - 0,0
18.08.2019 03:00:00 13,3 10,0 - - 0,0
18.08.2019 02:00:00 13,0 9,8 - - 0,0
18.08.2019 01:00:00 13,3 10,9 - - 0,0
18.08.2019 00:00:00 13,4 10,5 - - 0,0
17.08.2019 23:00:00 14,1 11,2 - - 0,0
17.08.2019 22:00:00 14,6 11,8 - - 0,0
17.08.2019 21:00:00 14,9 11,2 - - 0,0
17.08.2019 20:00:00 15,0 10,7 - - 0,0
17.08.2019 19:00:00 16,1 12,0 - - 0,0
17.08.2019 18:00:00 16,6 10,2 - - 0,0
17.08.2019 17:00:00 16,5 10,0 - - 0,0
17.08.2019 16:00:00 17,5 10,5 - - 0,0
17.08.2019 15:00:00 17,3 11,4 - - 0,0
17.08.2019 14:00:00 16,9 11,5 - - 0,0
17.08.2019 13:00:00 16,4 11,2 - - 0,0
17.08.2019 12:00:00 15,6 10,6 - - 0,0
17.08.2019 11:00:00 15,3 10,3 - - 0,0
17.08.2019 10:00:00 15,0 10,6 16,5 15,4 0,0
17.08.2019 09:00:00 14,0 11,1 - - 0,0
17.08.2019 08:00:00 12,7 11,1 - - 0,0
17.08.2019 07:00:00 12,8 12,1 - - 0,0
17.08.2019 06:00:00 12,6 11,7 - - 0,2
17.08.2019 05:00:00 13,6 12,8 - - 1,8
17.08.2019 04:00:00 14,5 12,8 - - 0,0
17.08.2019 03:00:00 14,5 12,7 - - 0,0
17.08.2019 02:00:00 14,4 12,5 - - 0,0
17.08.2019 01:00:00 14,9 12,2 - - 0,0
17.08.2019 00:00:00 14,3 12,5 - - 0,0
16.08.2019 23:00:00 14,1 12,7 - - 0,0
16.08.2019 22:00:00 15,4 14,3 - - 0,0
16.08.2019 21:00:00 16,4 15,6 - - 0,0
16.08.2019 20:00:00 16,5 15,6 - - 0,0
16.08.2019 19:00:00 16,5 15,5 - - 0,0
16.08.2019 18:00:00 17,5 16,0 - - 0,0
16.08.2019 17:00:00 17,5 15,8 - - 0,0
16.08.2019 16:00:00 18,7 16,6 - - 0,0
16.08.2019 15:00:00 17,2 15,7 - - 0,0
16.08.2019 14:00:00 16,6 15,2 - - 0,0
16.08.2019 13:00:00 16,0 15,3 - - 0,4
16.08.2019 12:00:00 15,2 14,6 - - 4,0
16.08.2019 11:00:00 14,8 14,2 - - 7,4
16.08.2019 10:00:00 14,4 13,7 17,0 15,0 7,0
16.08.2019 09:00:00 14,2 13,2 - - 3,4
16.08.2019 08:00:00 14,7 13,7 - - 2,6
16.08.2019 07:00:00 14,9 14,0 - - 3,2
16.08.2019 06:00:00 14,9 13,9 - - 1,2
16.08.2019 05:00:00 15,2 13,3 - - 0,0
16.08.2019 04:00:00 15,1 13,4 - - 0,0
16.08.2019 03:00:00 15,6 14,5 - - 0,0
16.08.2019 02:00:00 15,4 14,2 - - 0,0
16.08.2019 01:00:00 15,3 13,9 - - 0,0
16.08.2019 00:00:00 15,4 13,4 - - 0,0
15.08.2019 23:00:00 14,9 11,9 - - 0,0
15.08.2019 22:00:00 15,0 12,6 - - 0,0
15.08.2019 21:00:00 14,1 10,5 - - 0,0
15.08.2019 20:00:00 15,0 10,0 - - 0,0
15.08.2019 19:00:00 17,2 9,6 - - 0,0
15.08.2019 18:00:00 18,3 9,6 - - 0,0
15.08.2019 17:00:00 18,2 9,1 - - 0,0
15.08.2019 16:00:00 17,0 8,2 - - 0,0
15.08.2019 15:00:00 17,8 8,6 - - 0,0
15.08.2019 14:00:00 17,9 8,6 - - 0,0
15.08.2019 13:00:00 17,1 8,5 - - 0,0

tt = Temperatura
td = dewpoint
tt -20cm = Temperatura -20cm
tt -100cm = Temperatura -100cm
rr = precipitazioni

Stazioni seguenti

WeatherPro
AMSI
MeteoEarth